Location: Unspecified
(41.9031°N, 12.4386°E)
Time: 07:06:36
(UTC+01:00)

ISS - Pass Details

Date: 07 December 2019
Orbit: 411 x 421 km, 51.6° (Epoch: 15 December)

Event Time Altitude Azimuth Distance (km) Brightness Sun altitude
Rises 19:13:36 0° 300° (WNW) 2,362 0.8 -28.0°
Reaches altitude 10° 19:15:45 10° 295° (WNW) 1,497 -0.3 -28.4°
Enters shadow 19:16:40 17° 289° (WNW) 1,142 -0.9 -28.5°
